Wind_Speed
44 46 49 51 54 55 56 57 57 58 58 58 58 58 59 59 59 62 64 66 68 68 70 76 79 80 81 81 81 83 85 86 87 88 88 89 89 88 92 98 100 102 104 103 102 103 104 105 107 108 107 105 103 101 100 99 98 98 99 98 97 99 102 106 108 106 102 96 94 94 91 88 86 84 81 79 78 77 74 69 66 66 69 67 64 64
47 49 51 54 56 58 60 60 60 61 62 61 61 61 62 63 62 65 67 69 71 71 71 75 79 81 80 80 82 84 85 87 88 89 90 89 87 91 98 102 104 107 108 106 107 108 108 109 110 110 109 107 105 103 101 100 100 100 100 99 97 96 96 99 103 102 98 94 91 90 88 86 84 83 82 80 79 78 76 72 67 66 69 68 67 68
49 51 53 56 59 61 62 63 63 64 65 64 64 64 64 65 64 66 68 71 72 72 72 75 78 80 79 80 82 83 85 88 89 91 92 89 91 99 103 105 109 111 110 109 110 110 111 111 111 111 109 107 104 102 101 100 100 99 99 98 96 94 93 93 96 98 94 90 87 86 85 84 82 82 82 80 78 78 76 73 68 66 68 70 71 71
51 53 55 58 60 62 62 63 63 64 65 65 65 65 65 66 66 66 67 69 72 73 74 76 78 79 79 81 83 84 86 88 92 94 91 90 97 103 104 107 110 110 108 108 109 110 110 111 112 111 109 106 102 99 98 97 96 96 96 95 94 92 91 90 91 92 90 86 83 82 82 81 79 80 81 79 78 77 76 75 70 66 68 72 73 72
52 54 56 58 60 62 62 63 63 63 64 64 64 65 65 66 67 68 69 69 72 74 75 78 79 79 83 84 84 85 87 90 95 93 88 93 101 104 106 111 112 111 111 113 114 116 117 118 118 116 113 108 102 97 93 92 91 90 89 89 90 90 89 88 87 87 85 81 78 78 78 78 77 77 79 78 77 76 76 76 72 66 68 72 74 74
53 54 56 58 60 61 62 63 63 63 64 65 65 66 66 67 68 70 72 72 74 75 76 81 80 77 83 88 88 89 90 95 98 92 92 101 106 109 114 117 118 119 121 123 124 124 124 126 125 121 117 111 103 96 91 89 87 84 81 81 82 84 86 85 82 82 80 76 72 73 74 75 75 75 76 77 77 76 76 77 75 69 69 73 75 76
52 53 55 57 59 61 62 63 64 65 65 65 66 67 67 69 70 72 75 76 77 77 78 84 84 80 85 92 95 95 96 100 100 96 102 110 113 117 121 122 123 124 126 128 127 127 127 128 127 123 118 112 103 96 90 86 83 80 77 75 75 78 81 81 79 76 75 72 68 68 70 72 73 73 74 76 76 76 76 76 76 72 70 72 74 75
51 53 55 58 59 61 63 65 65 66 67 66 67 68 69 71 73 74 77 79 80 79 80 84 86 87 91 96 99 99 101 104 103 103 110 115 117 122 124 124 125 125 127 128 126 127 128 128 127 123 118 112 104 97 90 83 80 77 74 72 73 74 75 76 75 72 69 67 64 63 66 69 70 71 72 75 76 76 75 74 75 73 70 71 74 76
52 54 57 59 60 63 66 67 68 69 70 70 71 72 74 75 78 79 80 82 83 83 86 88 91 93 96 99 102 103 106 106 105 109 115 117 120 123 124 125 126 127 129 129 128 129 131 132 131 127 120 112 105 98 90 82 77 75 71 69 71 72 70 69 70 68 63 62 60 60 63 66 68 69 70 73 74 75 74 73 73 72 70 72 74 76
54 56 59 60 62 65 68 69 71 73 75 76 77 78 79 81 83 84 85 87 87 88 91 94 96 97 98 101 103 107 109 105 106 113 117 120 123 124 125 126 127 130 133 132 132 133 135 136 136 131 122 113 105 97 89 82 76 71 68 66 66 69 67 63 64 63 58 57 57 57 61 64 66 67 69 72 73 74 74 73 73 71 70 73 75 76
56 58 60 62 64 67 70 72 74 77 78 80 81 82 83 86 88 88 89 91 91 91 92 95 99 101 103 105 105 108 109 106 110 116 119 123 125 125 127 128 129 133 136 136 134 135 137 138 136 129 120 111 103 94 86 79 73 67 64 62 61 64 64 60 61 60 55 54 56 56 58 63 64 66 68 71 72 73 74 73 73 72 71 74 76 76
58 60 62 64 67 70 72 75 78 80 82 83 84 86 87 89 90 89 91 93 92 93 94 97 100 103 107 109 110 112 110 109 116 120 123 127 128 128 130 130 132 138 141 140 137 137 139 138 134 125 114 104 96 89 83 76 70 64 60 58 57 60 61 59 59 59 54 52 54 54 57 61 64 65 67 69 70 72 73 73 74 75 74 75 77 77
62 64 66 68 70 73 75 78 81 82 83 85 87 90 90 91 91 91 92 93 91 93 96 100 102 103 107 111 115 116 114 116 123 126 129 132 133 134 135 136 139 144 146 145 142 141 141 139 133 122 109 97 89 84 79 72 66 61 58 56 55 57 59 58 57 58 54 50 51 52 54 59 64 65 66 68 69 71 73 73 74 76 76 76 78 79
66 68 71 73 74 76 78 81 83 84 85 87 89 91 92 94 95 93 93 93 90 90 95 101 104 106 107 112 116 117 117 122 127 129 133 136 138 140 141 141 145 149 150 150 148 145 143 141 135 121 106 92 85 80 74 68 61 57 56 55 54 56 57 56 56 56 53 50 50 51 52 56 62 63 64 66 68 71 73 72 74 76 76 76 79 81
69 71 74 76 77 79 81 82 84 85 86 88 90 92 94 96 97 97 96 96 93 91 93 99 105 109 110 113 117 118 120 126 129 132 136 139 141 144 144 146 149 153 154 154 152 149 145 143 138 124 106 91 83 77 70 64 57 54 54 53 53 56 56 54 54 54 52 49 50 51 52 54 59 62 63 65 67 70 71 71 74 77 77 77 80 83
70 72 74 76 78 80 82 83 84 86 88 89 92 93 95 96 99 101 100 99 98 96 95 99 105 110 114 117 120 122 125 129 132 134 138 141 143 146 147 150 153 156 156 156 153 149 145 142 138 128 110 92 83 76 67 61 55 52 52 51 52 56 57 54 52 52 50 49 50 52 53 54 58 61 62 63 67 69 69 70 73 77 77 78 82 84
71 72 74 76 78 80 83 85 86 88 90 92 94 96 98 99 101 104 103 102 104 103 101 103 108 111 115 121 125 126 128 131 134 136 139 142 145 148 150 152 155 158 157 155 152 147 143 139 135 127 112 96 85 74 65 59 54 51 50 49 50 54 56 54 51 51 48 47 50 52 54 55 57 61 62 63 66 68 68 69 73 75 77 79 84 87
74 75 76 77 79 81 85 87 88 90 92 94 96 99 101 103 105 107 108 108 108 108 107 107 111 113 115 123 129 129 130 133 136 137 140 144 147 150 152 154 157 159 157 155 151 146 142 138 131 121 109 98 87 74 64 59 54 50 49 48 48 51 55 54 50 49 48 46 49 52 55 56 57 60 62 63 65 67 67 70 73 75 77 81 86 90
76 78 78 79 82 84 87 89 90 92 95 96 98 101 104 106 109 110 112 113 113 114 114 112 114 116 116 125 132 132 134 137 137 140 143 147 149 152 154 157 159 160 159 156 150 145 142 137 129 117 105 97 88 74 63 59 55 51 48 46 48 50 53 53 49 47 47 46 48 52 54 56 58 59 62 63 65 67 68 71 73 74 77 81 87 91
78 81 82 82 85 87 89 91 93 95 97 98 100 104 106 109 111 112 115 117 117 120 120 118 118 117 119 128 134 135 138 140 140 143 147 150 152 154 156 159 162 162 160 157 151 146 142 136 126 114 103 96 88 75 62 56 55 53 48 45 47 49 51 51 48 45 46 45 47 51 52 55 58 59 62 63 65 67 69 72 73 74 77 81 87 91
81 84 85 86 88 90 91 92 94 97 99 101 103 106 109 111 113 114 115 117 120 122 124 124 123 119 123 132 136 137 141 141 142 146 150 153 155 157 159 161 163 162 161 158 152 147 141 134 123 110 101 95 88 77 65 56 54 53 49 45 45 49 49 48 46 44 44 43 45 49 51 53 57 59 61 63 65 67 70 72 73 75 78 82 87 91
84 85 88 90 92 92 93 93 95 98 100 103 105 108 111 112 114 116 116 116 120 123 126 129 127 122 127 135 137 140 143 142 144 147 151 155 157 159 161 163 164 163 161 159 154 147 141 133 120 106 98 94 87 79 68 58 54 52 50 45 44 48 48 46 44 43 43 41 42 46 49 52 56 59 60 62 65 67 70 72 73 76 79 83 88 92
87 89 92 94 95 95 95 95 97 99 101 103 105 108 111 113 115 117 117 118 120 122 127 131 130 127 131 136 138 142 144 143 145 148 152 157 159 160 162 164 165 164 162 160 154 147 141 132 118 104 96 92 86 79 71 62 55 51 48 45 44 46 47 45 42 42 42 40 40 44 47 50 53 58 59 61 65 67 69 73 74 77 80 84 88 93
90 93 95 97 98 98 97 97 99 102 104 105 106 109 111 113 116 119 120 122 122 123 127 131 131 131 133 137 140 144 144 145 146 149 154 158 160 162 164 165 165 165 162 159 153 145 138 129 116 103 94 90 85 79 71 64 57 51 46 42 43 45 46 44 42 40 41 40 39 42 45 48 51 56 58 60 65 66 68 73 75 77 81 85 89 92
93 96 99 100 101 101 100 99 101 104 107 107 107 110 112 115 119 122 124 126 126 125 128 131 132 133 133 137 141 144 145 146 148 151 156 160 162 163 165 166 166 165 162 157 150 142 134 125 113 101 93 87 82 77 70 64 59 53 46 39 41 44 45 44 42 40 40 39 39 40 43 46 49 54 57 60 64 66 69 74 76 77 82 85 88 92
96 99 102 103 103 102 101 100 103 108 110 109 109 112 115 118 122 125 127 130 130 129 129 131 134 135 133 137 141 144 147 148 150 153 157 161 163 164 165 167 167 165 160 155 148 138 129 120 108 99 91 84 78 74 67 62 58 54 48 39 38 42 44 44 43 40 39 39 39 39 42 44 48 53 56 59 64 66 69 74 76 78 82 85 88 92
99 101 103 104 105 104 102 102 106 111 113 112 112 114 117 121 125 128 131 133 134 133 130 132 136 137 136 139 142 145 148 151 153 156 159 161 163 164 167 169 168 164 159 153 145 135 126 116 105 97 89 81 76 71 64 58 54 53 50 42 38 40 43 44 43 40 39 39 39 39 41 44 47 51 55 58 63 67 70 74 76 78 82 84 86 90
103 104 105 106 106 106 105 107 111 115 115 113 114 115 119 123 126 130 133 134 136 135 132 134 137 139 140 142 144 146 150 154 156 159 160 163 165 166 169 170 168 162 156 148 140 132 123 112 101 94 87 79 74 70 63 56 50 49 49 44 39 40 42 42 42 41 38 37 39 40 41 43 46 49 53 57 63 67 70 74 76 78 81 83 84 88
107 108 109 109 109 109 110 112 116 117 117 116 116 118 121 124 127 130 133 135 136 136 135 137 139 141 142 144 146 148 152 157 160 161 163 165 167 169 171 170 165 159 151 142 135 126 116 105 97 91 85 78 73 69 64 56 50 47 47 42 37 38 42 42 41 41 39 36 37 39 41 43 45 48 51 57 63 66 70 75 77 78 81 83 84 87
111 112 113 113 113 113 114 117 120 120 119 118 118 120 123 125 127 130 133 135 137 136 137 140 142 143 145 146 147 149 153 159 162 164 165 166 169 171 171 168 162 155 146 137 129 120 108 99 94 90 83 76 71 67 63 57 51 47 45 41 35 35 40 42 40 40 39 36 36 38 40 42 44 46 50 57 63 66 70 75 78 79 81 84 84 87
113 114 114 115 115 115 118 120 122 121 120 120 120 123 126 127 128 129 132 135 136 136 138 142 144 145 147 148 148 150 154 159 163 165 166 169 171 172 170 166 160 152 141 131 124 114 102 94 90 87 81 75 70 65 60 56 52 47 43 40 35 33 37 41 40 38 38 36 35 37 38 40 42 44 49 56 62 65 69 74 78 79 82 84 85 87
116 116 115 116 117 118 120 122 123 122 121 121 123 126 127 127 128 130 132 135 137 138 140 143 145 147 148 149 149 151 154 159 162 165 168 171 172 172 168 163 156 147 137 129 121 109 97 89 85 81 77 72 68 64 59 55 52 48 42 37 34 32 35 39 39 36 36 35 34 35 37 37 40 43 49 55 60 63 66 70 74 79 82 85 87 89
119 118 118 120 121 122 123 124 124 123 123 124 127 129 129 129 129 130 132 135 138 141 143 144 147 149 150 151 151 152 154 158 161 165 170 172 173 171 167 160 153 146 137 129 120 106 92 85 81 76 73 70 66 62 57 53 51 47 41 35 31 30 34 37 37 35 34 33 33 34 35 35 37 42 48 53 56 59 62 64 70 76 81 85 88 90
122 122 122 124 125 125 124 125 125 125 125 127 130 131 131 131 132 132 133 135 139 142 145 146 149 151 153 154 154 154 156 158 161 166 171 173 173 171 166 159 152 145 136 127 116 101 88 81 77 72 71 70 65 60 56 51 49 46 39 31 28 29 32 36 36 33 32 31 32 34 34 33 35 42 47 49 52 56 58 61 66 73 79 84 87 90
123 124 126 127 128 127 127 127 128 128 127 130 133 134 134 134 134 133 133 136 140 143 146 149 152 154 155 156 156 156 157 159 162 167 170 172 172 170 165 159 152 142 132 121 110 95 83 77 73 68 67 67 63 59 56 51 47 44 37 30 26 28 32 35 34 31 30 30 31 33 34 33 35 41 46 47 49 53 56 59 64 69 76 82 86 89
124 126 127 128 129 129 129 130 131 130 130 132 134 135 135 136 136 135 135 137 141 145 147 150 153 155 156 156 157 158 159 160 163 166 168 169 170 167 163 158 150 139 127 117 106 91 79 73 69 66 65 63 58 55 53 51 46 41 35 29 27 28 32 35 33 30 29 30 30 32 33 34 36 40 44 45 47 51 54 57 61 66 73 79 83 86
126 127 128 129 129 130 130 131 132 132 132 134 136 137 137 137 138 138 137 139 144 147 150 152 154 155 156 156 158 160 161 161 162 164 165 166 164 161 157 152 144 133 122 113 104 93 82 75 70 67 66 63 57 51 49 48 45 39 33 29 28 29 32 34 31 29 29 30 30 31 33 34 36 40 42 44 46 49 52 55 58 63 70 76 79 82
128 128 129 130 130 131 132 133 133 132 133 136 139 140 139 139 140 142 141 143 147 150 152 154 155 155 156 157 159 161 163 163 163 163 163 162 158 153 148 142 134 125 116 108 101 94 85 76 71 69 68 65 59 52 47 45 43 39 34 31 29 29 31 32 30 28 29 30 29 30 32 34 38 40 41 44 46 48 50 52 55 61 68 73 75 79
129 130 132 132 133 134 135 135 134 133 135 139 142 142 142 142 143 145 146 147 150 152 154 155 156 156 157 158 160 163 165 165 163 163 162 158 152 147 140 132 125 117 109 103 99 94 87 77 70 69 68 66 61 54 48 44 41 38 34 32 31 29 30 31 29 27 29 29 29 31 32 35 39 40 41 44 47 48 49 50 54 60 67 71 73 78
132 133 134 135 135 136 137 136 135 135 137 141 144 144 145 145 146 148 149 151 152 154 155 156 156 157 158 159 162 165 166 165 163 163 159 153 147 141 133 126 118 110 103 98 94 92 88 80 72 67 64 62 59 54 49 43 40 37 34 32 31 30 30 30 29 27 29 29 30 31 33 36 40 40 40 44 47 49 49 50 53 60 67 71 73 79
134 135 135 136 137 138 139 139 138 138 140 143 146 147 147 148 149 151 152 153 154 155 155 157 158 158 159 162 165 166 166 164 163 160 155 148 141 134 127 119 112 105 100 96 90 87 85 81 76 69 63 58 55 50 47 43 39 36 34 31 31 31 31 30 28 28 29 29 30 31 33 37 40 40 41 45 48 49 50 51 54 60 67 71 75 81
135 136 137 138 139 140 141 142 142 142 144 145 147 149 150 150 151 153 154 154 156 156 157 159 159 159 161 164 166 165 163 162 160 156 150 143 135 127 120 113 107 101 97 94 90 86 82 79 76 70 64 60 55 50 45 41 38 36 34 32 31 32 32 30 29 29 29 29 30 31 33 37 39 40 41 45 48 50 51 52 55 60 66 71 76 82
138 138 139 140 141 142 143 144 145 146 147 148 149 151 152 153 153 154 155 156 158 159 159 160 160 162 165 166 165 163 161 159 156 151 145 138 129 121 114 108 103 99 94 91 89 86 82 79 74 68 62 57 54 51 45 40 37 35 35 33 32 32 32 31 31 30 30 29 29 31 33 36 38 38 39 43 47 50 51 52 55 61 66 71 77 83
141 141 141 142 143 144 145 147 149 150 150 151 152 153 154 155 156 156 157 158 160 161 161 161 163 165 166 164 162 161 159 156 151 146 139 131 123 115 109 104 100 97 94 90 88 85 82 78 73 68 62 56 51 48 45 40 36 35 34 33 32 32 32 32 31 31 30 29 29 30 33 35 37 38 39 43 46 49 50 52 56 62 68 73 78 83
144 144 145 145 146 147 148 150 152 153 154 155 155 156 157 158 158 159 160 161 162 162 163 164 166 166 164 162 160 159 156 152 147 141 133 124 115 108 103 100 98 96 93 90 87 84 81 76 71 66 62 56 50 45 42 39 36 35 34 33 32 31 31 31 32 31 30 29 29 30 32 35 36 37 39 43 47 49 51 53 57 63 69 74 79 83
146 147 148 148 149 150 151 152 154 155 156 157 158 158 159 160 161 162 162 163 164 165 166 166 166 164 162 159 158 156 153 148 142 135 126 116 108 102 99 97 97 96 93 89 86 84 80 76 70 65 60 56 51 45 40 37 35 35 34 33 31 30 29 30 32 32 31 29 28 29 31 33 35 36 38 42 46 49 52 55 59 65 70 76 80 83
148 151 151 151 152 152 153 154 156 156 158 159 160 160 161 162 163 164 164 165 166 166 167 166 164 162 160 157 155 153 150 144 136 128 119 110 102 97 95 95 95 95 92 88 84 82 79 74 69 64 59 54 50 46 41 37 35 34 34 33 31 30 29 29 31 32 31 29 28 29 31 33 34 35 37 41 45 49 52 56 61 66 71 76 80 84
151 153 153 154 154 153 154 155 157 157 158 160 161 162 163 164 164 166 167 167 167 167 166 165 163 160 158 155 152 150 145 138 130 121 112 104 97 93 92 93 94 94 91 87 83 80 77 73 67 62 57 52 48 45 41 37 35 34 33 32 31 30 29 28 29 31 30 29 28 29 31 33 34 34 37 41 45 49 53 58 63 68 72 77 82 86
153 154 155 155 155 154 155 157 158 157 159 161 162 163 164 165 166 167 167 167 166 166 164 163 161 158 155 153 150 146 139 131 122 114 106 98 93 90 89 91 93 93 90 86 82 78 75 71 66 61 55 49 46 43 40 37 35 33 32 31 30 30 28 27 28 30 30 29 29 29 31 33 34 35 37 42 46 50 54 60 66 71 75 78 82 87
155 156 157 156 156 155 157 158 159 159 160 162 163 164 165 166 167 166 166 166 165 164 162 160 158 155 153 150 146 138 130 123 116 108 101 94 90 87 87 89 91 91 88 84 80 77 73 69 66 61 54 48 44 41 38 36 34 33 31 30 30 29 28 26 27 29 30 30 29 29 31 33 35 36 39 43 48 52 57 63 68 73 77 81 85 89
158 159 159 158 156 156 157 159 160 161 161 163 164 165 166 166 165 164 164 164 163 162 160 157 154 152 150 146 138 129 121 116 109 102 97 92 87 85 85 87 89 89 86 82 78 75 72 68 64 60 54 48 43 40 37 35 34 32 30 29 29 29 27 26 26 28 30 30 30 30 31 33 35 38 41 45 50 54 59 65 70 75 79 83 87 90
Wind_Direction
311 315 316 316 317 319 321 321 322 321 321 322 323 324 324 323 322 320 320 320 320 321 321 320 319 320 321 321 321 320 318 318 319 320 320 321 323 327 330 330 329 330 331 330 329 328 327 327 326 325 322 319 315 311 307 303 299 296 293 291 288 287 286 285 284 283 282 281 280 279 277 275 272 269 267 264 261 260 257 252 247 246 249 250 246 244
312 314 315 315 316 317 318 319 319 319 320 321 322 323 321 321 321 320 320 320 320 321 321 321 320 320 321 321 320 319 318 319 321 322 323 325 327 330 330 329 330 331 331 331 330 330 329 328 327 325 323 319 316 311 307 304 301 298 295 293 290 287 284 282 281 280 279 278 276 275 274 272 270 267 265 262 260 259 258 253 247 243 245 247 245 241
311 312 313 313 314 315 316 317 317 318 319 319 321 321 320 320 319 319 319 319 320 320 321 320 319 319 320 319 319 319 319 320 324 326 327 329 332 332 331 330 331 332 331 331 330 330 329 328 326 324 322 318 314 311 307 304 301 299 296 294 291 287 283 280 279 278 276 275 274 272 271 269 267 265 263 261 259 258 257 254 247 240 241 243 243 240
310 310 311 311 313 314 316 317 317 318 318 319 320 320 319 319 318 319 319 319 319 320 321 319 318 319 318 317 318 320 321 323 326 328 328 332 333 332 331 331 332 331 331 330 329 329 328 327 326 323 320 317 313 310 307 303 301 298 296 293 290 286 283 280 278 277 275 273 271 269 267 266 264 262 261 259 257 255 255 253 247 238 237 239 240 239
311 311 310 311 312 314 316 318 319 319 318 319 319 318 319 319 319 319 320 321 320 321 321 318 318 319 317 317 320 323 326 328 329 329 330 333 333 332 332 332 332 332 332 331 331 331 331 330 328 325 322 318 314 311 307 303 300 297 295 292 290 287 284 281 278 276 274 271 268 266 264 262 260 258 258 257 254 252 251 251 247 237 233 235 237 237
311 311 311 311 314 316 318 318 319 319 318 318 318 318 319 318 319 320 320 322 321 321 320 317 319 321 319 319 322 326 329 330 330 331 334 335 334 333 333 333 333 334 334 334 334 333 333 332 330 327 324 319 315 312 309 305 301 298 294 291 288 287 284 282 279 275 273 270 266 263 261 259 257 255 254 254 252 249 247 247 246 237 230 231 234 235
312 313 313 314 316 317 317 318 318 318 317 317 318 318 318 318 319 321 321 322 321 321 321 317 318 322 323 322 324 327 329 331 331 334 337 336 334 334 334 334 334 335 335 335 335 334 333 332 330 327 323 319 315 313 310 306 303 300 296 292 288 286 284 282 280 275 271 268 264 260 258 256 254 251 250 250 250 247 245 245 245 240 232 231 233 234
315 316 316 316 316 316 316 316 316 316 316 317 318 319 318 319 320 321 321 321 320 321 321 319 319 324 326 324 324 327 329 331 332 335 337 335 333 334 334 334 334 335 335 335 334 334 333 332 330 327 323 319 316 314 311 308 305 302 298 293 290 287 284 282 280 276 271 267 263 259 256 254 251 248 247 246 246 245 244 243 243 240 234 230 231 231
316 316 316 316 316 315 315 315 315 314 315 316 318 320 320 320 320 320 320 319 319 320 321 321 322 324 326 324 325 329 330 331 334 336 337 334 333 334 335 335 335 335 336 335 335 335 334 333 332 329 324 321 318 316 313 310 307 304 299 294 290 288 284 281 278 275 271 266 262 258 255 253 250 246 244 242 241 241 241 240 239 237 232 228 228 229
316 316 317 316 316 316 315 315 314 314 315 316 318 320 319 319 319 318 318 318 319 320 321 322 322 323 325 326 329 332 331 332 335 337 335 334 334 335 335 336 336 336 336 335 335 336 335 335 333 330 326 322 320 318 315 311 308 304 299 294 290 287 284 280 276 273 269 264 260 256 253 251 248 245 242 240 238 237 237 235 234 232 228 225 225 227
316 316 316 315 316 316 315 315 315 315 316 317 318 319 318 317 316 317 317 318 319 321 321 321 322 324 327 329 332 333 332 334 336 336 335 334 335 335 335 336 337 336 336 335 336 336 335 335 333 330 326 323 321 318 315 311 308 304 298 293 288 285 283 280 275 272 267 261 256 252 249 248 247 244 241 238 236 235 235 233 230 228 224 222 222 224
315 315 314 314 315 315 314 315 315 316 316 317 318 317 316 315 315 316 316 317 319 320 321 321 323 325 327 331 334 333 332 336 337 336 335 335 335 336 336 337 337 337 336 335 336 336 335 334 333 329 326 324 321 318 315 311 308 303 298 292 287 283 281 278 274 271 266 258 253 249 245 244 245 243 240 238 236 234 234 232 228 225 222 219 219 221
314 314 314 314 314 314 313 313 314 316 315 316 316 316 316 315 315 316 315 317 320 321 322 321 323 327 328 331 333 331 333 337 337 335 334 335 335 336 336 337 337 336 335 336 336 336 336 334 332 329 326 324 321 318 315 311 307 303 298 292 286 281 278 277 273 271 267 259 252 247 241 240 241 241 238 237 235 233 233 230 226 223 221 218 217 218
313 313 313 313 313 312 312 312 313 315 316 316 316 316 316 316 316 316 316 318 322 325 325 322 324 328 329 332 332 331 335 337 336 334 334 334 335 335 336 337 337 336 335 336 336 337 336 334 332 329 326 325 322 319 316 311 307 303 298 292 286 281 277 275 273 270 267 260 252 247 241 237 238 239 237 234 233 232 232 229 224 221 220 218 216 215
312 313 312 313 313 313 312 313 314 315 316 316 316 316 316 317 318 318 318 320 323 329 329 323 325 328 329 331 331 331 336 337 334 334 334 334 334 335 335 336 336 335 334 335 336 337 336 334 332 329 327 325 323 321 317 311 307 303 298 293 287 281 277 274 271 270 267 261 252 246 241 236 234 236 235 233 231 231 231 229 223 219 218 216 215 214
314 314 314 313 314 313 313 313 313 314 314 315 316 316 317 318 318 318 320 322 324 330 331 327 328 330 329 330 330 332 337 336 334 334 333 333 334 334 335 336 335 334 334 335 336 336 336 335 332 329 327 326 324 323 319 313 308 304 299 294 287 282 278 275 270 268 267 262 254 247 242 237 233 233 233 231 230 230 229 228 223 219 217 215 214 214
313 314 313 312 312 312 311 312 312 313 314 314 316 317 318 318 318 319 322 325 326 329 332 331 332 333 330 329 330 334 335 334 334 334 332 332 333 333 334 334 333 333 333 335 335 336 336 334 331 328 326 325 325 324 320 314 309 306 301 295 288 282 280 277 271 267 266 261 255 248 243 238 233 231 231 229 228 228 227 226 224 221 217 214 212 212
312 312 312 312 312 311 311 311 312 313 313 314 316 316 317 317 319 320 323 327 327 328 332 332 333 335 331 328 331 334 333 333 334 332 332 332 332 332 333 333 333 332 333 334 335 336 336 334 331 328 325 324 325 324 321 315 310 307 303 296 288 282 280 279 273 267 265 260 254 250 244 240 234 230 230 228 227 227 225 224 224 221 217 213 211 211
311 312 312 313 313 312 312 312 312 312 313 314 315 316 316 317 318 321 325 327 327 328 331 333 335 335 330 329 332 333 332 333 333 332 332 332 331 332 333 333 332 332 333 334 335 335 335 334 331 328 325 324 324 324 321 316 312 308 304 297 288 282 280 279 275 270 265 259 253 249 245 241 236 231 229 228 226 225 223 221 222 221 218 214 211 211
312 312 313 313 313 312 312 312 311 312 312 314 315 316 316 317 318 322 326 326 325 327 330 332 336 335 329 330 333 332 332 333 331 331 332 332 332 333 333 332 332 332 333 334 335 335 335 333 330 328 325 324 323 323 321 317 314 310 306 299 290 284 281 279 277 272 267 260 252 249 245 242 238 232 228 227 226 223 221 219 219 219 218 215 211 211
311 312 313 313 313 312 311 311 311 312 313 314 316 316 316 317 319 324 327 326 325 327 327 330 336 334 329 331 333 332 332 331 330 330 331 331 332 333 332 331 331 332 333 334 334 335 334 331 329 327 326 324 323 323 321 318 315 312 307 300 291 285 281 279 276 272 267 261 253 249 245 241 239 234 229 227 225 223 220 217 216 216 217 214 211 210
309 311 313 313 312 311 311 311 311 312 313 314 315 316 316 317 320 324 327 326 325 326 326 329 335 333 330 331 331 332 332 330 328 329 329 331 332 332 331 330 330 332 332 333 334 334 333 330 328 327 326 324 323 322 320 318 315 313 308 301 291 285 282 279 276 272 268 262 255 250 246 241 238 235 230 226 225 223 219 215 214 214 215 213 210 209
309 310 311 312 312 312 312 311 312 313 314 315 316 316 316 317 320 323 325 325 326 327 327 330 333 332 331 330 330 331 331 329 328 328 328 330 331 331 330 329 330 331 332 332 333 333 332 330 327 327 326 324 323 321 319 317 315 312 308 301 291 284 282 279 275 271 269 263 256 251 247 242 238 235 230 225 224 222 218 215 212 212 214 212 209 208
309 309 310 311 312 312 311 311 312 314 315 316 316 316 316 317 320 323 324 324 326 327 328 329 331 331 331 329 329 330 329 328 327 327 327 329 331 331 329 329 329 330 331 331 332 332 332 329 326 326 326 324 322 320 318 317 314 311 307 300 291 285 282 279 275 270 268 264 257 251 247 242 238 235 230 225 223 221 217 215 212 211 212 212 208 207
308 309 310 311 311 312 311 311 313 314 315 315 315 316 316 317 320 323 323 324 325 328 329 328 328 330 330 328 328 329 327 327 327 326 326 328 330 330 328 328 329 330 330 331 331 332 330 328 326 326 325 324 321 319 317 316 314 311 307 298 289 285 282 278 275 271 268 264 258 251 246 241 237 234 230 224 222 220 216 215 213 210 211 211 208 207
307 308 310 310 311 311 311 312 313 314 315 315 315 316 316 318 321 322 322 323 325 328 329 327 327 329 328 326 327 327 326 326 326 325 326 327 329 329 327 328 328 329 330 330 331 331 329 327 326 325 325 323 319 317 316 315 313 310 306 299 287 283 281 278 275 271 268 265 259 252 245 240 235 233 229 223 220 219 216 215 213 209 210 212 209 208
307 309 309 310 311 311 312 313 313 314 314 315 316 316 316 318 321 322 322 323 325 327 327 325 326 328 326 325 326 326 325 325 325 325 325 326 328 328 327 327 328 329 330 330 331 330 328 326 326 325 324 322 318 316 315 314 312 308 305 300 289 282 279 277 275 272 268 265 261 253 245 240 235 232 229 223 219 218 216 216 214 210 210 211 210 209
308 309 310 311 312 312 313 313 313 314 314 315 316 316 315 317 320 322 322 323 324 326 325 324 325 326 324 324 325 325 325 325 324 325 325 326 328 327 327 327 327 328 329 329 330 329 326 325 325 325 324 321 318 316 315 314 311 305 301 298 291 284 279 276 274 272 268 264 260 254 245 240 236 231 228 224 219 217 216 216 214 211 210 211 211 210
309 310 310 311 313 313 313 313 313 314 315 317 317 315 314 316 319 320 321 322 323 324 323 323 325 324 323 324 324 324 324 324 324 324 325 326 327 327 327 327 327 327 328 329 330 328 325 324 325 325 323 321 319 317 315 314 310 304 299 296 291 284 280 278 274 272 269 264 259 254 246 241 238 232 227 224 220 216 215 215 214 211 210 211 211 210
310 310 311 312 313 314 314 313 314 315 316 317 316 314 314 316 318 319 320 321 321 322 322 323 324 323 323 323 323 324 324 323 324 324 325 326 326 326 326 326 326 327 328 329 329 326 324 325 325 324 323 321 319 316 314 313 310 304 300 297 292 284 280 279 275 272 269 264 256 251 246 241 239 233 226 223 221 218 214 214 214 211 209 210 210 210
309 310 312 313 313 314 314 313 313 313 315 316 315 313 314 316 317 318 319 319 319 320 321 323 323 322 322 322 322 323 323 323 323 324 324 325 325 325 325 325 325 326 328 329 328 326 324 325 325 324 322 320 318 315 313 312 309 305 301 298 295 287 281 278 275 271 268 263 254 248 245 241 238 233 226 223 222 220 216 214 214 211 209 209 209 208
310 311 312 312 313 313 313 312 312 312 313 314 312 312 314 316 317 318 318 318 318 319 321 322 321 321 321 321 321 322 322 322 323 323 323 324 324 324 324 325 325 327 328 329 327 325 324 325 325 324 322 320 318 315 313 311 308 306 303 299 295 289 281 277 273 269 265 261 253 247 243 240 237 233 226 223 222 222 219 217 214 211 209 208 208 207
310 311 311 312 312 312 311 310 310 310 312 312 311 312 314 315 317 318 318 317 317 318 320 321 320 319 319 319 320 321 321 322 322 322 322 323 323 324 324 325 326 327 328 328 326 323 324 324 325 325 322 319 318 316 313 310 307 305 304 301 296 288 279 275 271 266 262 258 252 246 242 238 235 232 228 224 222 222 221 219 215 212 209 208 207 206
310 310 310 310 310 310 310 309 309 310 312 312 312 312 313 315 317 317 316 316 316 317 319 319 319 319 319 319 320 320 321 321 321 321 322 323 323 323 324 325 326 326 327 326 323 321 323 324 325 326 324 320 319 317 313 310 307 305 305 303 298 289 278 273 270 264 259 254 249 245 241 235 230 229 228 225 222 221 221 220 216 213 210 208 207 206
308 308 308 308 308 308 309 309 309 311 312 312 312 312 313 315 316 315 315 314 314 316 318 318 318 318 318 318 319 319 320 321 321 321 322 322 323 323 323 324 324 325 325 323 320 321 324 325 325 327 325 321 320 318 314 310 308 307 306 303 299 290 280 273 269 264 257 251 246 243 239 231 226 226 227 225 221 220 220 219 217 214 211 209 208 207
306 306 306 306 306 307 308 308 309 310 312 312 311 311 313 314 314 314 313 313 313 315 316 316 317 318 318 318 318 319 320 320 320 320 321 322 322 322 322 322 323 324 324 322 320 321 325 326 327 328 326 322 319 317 314 311 309 308 307 302 296 288 280 274 271 265 257 251 245 240 235 228 223 223 224 222 220 219 219 218 217 214 212 210 209 208
304 304 304 304 305 306 306 306 308 309 311 311 310 311 312 313 313 313 312 312 313 314 315 315 316 317 317 317 317 318 319 319 320 320 320 321 321 321 321 321 322 323 323 321 320 323 326 328 329 330 327 324 321 318 315 312 311 309 306 299 292 285 279 277 273 265 257 251 244 238 232 226 221 221 221 218 217 217 217 217 216 214 212 211 210 208
302 302 302 303 304 304 304 305 307 308 309 309 309 310 312 312 312 312 312 312 313 313 314 315 315 316 317 317 317 317 318 318 318 319 319 320 320 320 320 321 322 322 321 320 321 322 325 328 330 331 328 324 322 320 318 314 312 309 304 296 290 285 280 277 273 264 257 251 244 237 230 225 220 218 217 215 214 215 215 215 214 212 211 211 210 207
301 301 301 302 303 303 304 305 307 308 308 308 308 310 311 311 311 312 312 312 312 313 313 314 315 315 316 316 316 316 317 317 318 318 319 320 320 320 321 321 322 321 320 320 321 322 324 328 331 331 329 325 323 322 319 315 312 307 301 295 289 285 280 275 270 262 256 251 244 236 229 225 221 217 213 212 211 212 212 212 211 209 208 209 208 206
300 300 301 302 302 303 304 305 306 307 307 307 308 309 310 310 311 311 311 312 312 313 313 313 314 315 315 315 315 316 316 317 318 319 319 320 320 321 322 322 322 320 319 319 321 322 324 327 330 330 328 324 322 321 319 315 311 306 300 293 288 283 278 272 266 259 253 249 242 235 229 225 222 218 211 209 210 210 209 209 208 206 206 206 206 205
300 300 301 301 302 303 304 305 306 306 306 306 307 308 309 309 310 310 310 311 312 312 312 313 313 314 314 315 315 315 316 317 318 319 320 320 320 321 322 322 321 320 319 319 320 322 324 327 329 329 327 324 321 320 318 314 310 304 299 292 285 279 275 269 262 254 249 245 240 234 230 226 224 218 211 208 208 208 207 207 206 204 203 204 204 205
300 300 301 301 302 302 303 304 305 305 305 305 306 306 307 308 309 309 310 311 311 311 311 312 312 313 314 314 314 315 316 317 318 319 319 320 320 321 322 321 320 319 318 319 320 322 324 326 327 327 327 325 322 320 317 313 309 304 298 291 283 276 271 266 259 251 247 243 238 233 230 228 226 220 212 208 208 207 206 206 205 202 201 202 204 206
300 300 300 300 301 301 302 303 304 304 304 304 304 305 306 307 307 308 309 310 311 311 311 311 312 312 313 313 314 314 316 317 318 318 319 319 321 322 322 320 319 318 318 318 320 321 323 325 326 326 325 324 322 320 317 313 309 304 297 289 282 275 271 266 259 251 246 241 236 232 229 227 226 222 214 209 209 208 206 205 203 200 199 201 204 206
300 300 299 299 299 300 301 302 303 302 303 303 304 304 305 306 307 308 309 309 310 310 310 311 311 312 312 313 313 314 316 317 318 318 318 319 321 322 321 320 318 317 317 318 319 321 322 324 325 325 324 323 321 320 316 312 309 304 295 288 281 276 273 268 260 252 246 241 235 231 228 225 224 219 211 207 207 207 205 204 203 200 198 201 204 207
299 299 298 298 298 299 300 301 301 301 302 303 303 304 305 306 307 308 308 308 308 309 310 310 311 312 312 313 313 314 316 317 317 317 318 319 321 321 321 319 318 317 317 318 319 320 322 323 324 324 323 321 320 319 315 311 308 302 293 285 279 274 271 267 260 252 246 241 236 231 227 225 223 218 211 205 205 205 204 203 202 200 198 201 204 207
297 297 297 297 297 298 300 300 300 300 302 303 303 304 305 306 307 307 307 307 308 309 309 310 311 311 312 313 313 314 315 316 316 317 318 319 321 321 320 319 317 316 316 318 319 320 321 322 323 323 322 320 319 317 315 311 307 300 291 282 275 270 267 264 259 252 245 240 235 231 227 225 224 219 212 205 203 203 202 202 201 200 199 201 204 207
296 296 296 296 297 298 299 299 299 299 301 302 303 304 305 305 306 306 306 307 307 308 309 310 310 311 312 312 313 314 315 315 316 316 317 319 320 321 320 318 316 315 315 317 318 319 319 320 321 322 321 320 318 316 314 312 307 298 288 279 272 266 262 260 257 251 245 239 234 230 226 222 221 218 211 205 202 201 201 201 201 200 199 200 204 207
294 295 295 296 297 298 297 297 298 299 300 301 302 303 304 305 305 305 306 306 307 308 309 309 310 310 311 312 313 314 314 314 315 316 317 319 320 320 319 318 315 314 314 316 317 318 318 319 320 320 320 318 317 315 313 310 306 297 285 276 269 263 259 256 254 250 244 238 232 228 225 220 216 213 208 203 200 200 201 201 200 200 200 200 203 207
293 293 294 295 296 297 296 297 298 299 300 301 302 302 303 304 304 305 305 306 306 307 308 309 309 310 311 312 312 313 313 314 314 315 316 318 319 319 319 317 314 313 313 315 316 317 317 318 318 318 317 316 316 314 311 308 304 294 282 272 266 260 256 252 250 247 242 237 230 226 223 219 214 209 205 201 199 199 200 200 200 199 199 200 203 206
291 292 293 295 295 296 296 297 298 299 299 300 301 302 303 303 304 304 304 305 306 307 307 308 309 309 310 311 312 312 313 313 314 314 315 317 318 318 317 315 313 312 312 314 315 316 316 317 317 317 316 315 314 313 309 306 302 293 280 268 262 258 254 250 247 244 240 235 229 225 222 218 212 207 203 200 199 199 200 200 200 199 199 200 203 205
290 291 293 294 294 295 296 296 297 298 299 299 300 301 302 302 303 303 304 305 305 306 306 307 308 309 309 310 311 311 312 312 312 313 314 316 317 317 316 314 312 311 311 313 314 315 315 315 315 315 315 313 313 312 308 304 300 292 278 266 259 255 252 247 243 241 238 233 228 223 219 215 210 205 202 200 199 199 199 199 199 199 200 201 203 205
Height
10763 10761 10758 10755 10753 10750 10748 10746 10744 10741 10739 10737 10735 10733 10729 10727 10723 10718 10714 10710 10707 10705 10698 10686 10675 10671 10668 10662 10656 10650 10643 10637 10631 10625 10620 10613 10606 10600 10592 10583 10575 10569 10563 10555 10547 10539 10530 10522 10513 10504 10496 10487 10478 10468 10459 10453 10447 10441 10437 10436 10435 10430 10422 10414 10410 10412 10416 10421 10424 10427 10431 10436 10439 10444 10450 10455 10458 10462 10469 10475 10480 10484 10485 10488 10494 10495
10755 10754 10751 10748 10745 10743 10741 10739 10737 10734 10731 10729 10727 10726 10722 10719 10717 10711 10705 10701 10697 10695 10691 10681 10669 10664 10662 10657 10650 10643 10635 10630 10624 10616 10609 10602 10595 10587 10579 10571 10564 10557 10549 10541 10533 10525 10516 10508 10499 10490 10480 10470 10461 10451 10442 10433 10426 10421 10417 10414 10413 10413 10409 10401 10394 10394 10398 10403 10407 10409 10413 10418 10422 10426 10431 10437 10441 10445 10451 10459 10466 10470 10472 10476 10480 10481
10748 10747 10744 10741 10738 10736 10734 10732 10730 10727 10724 10722 10720 10718 10716 10712 10710 10706 10699 10693 10688 10685 10682 10675 10666 10660 10657 10651 10645 10638 10630 10623 10615 10606 10596 10590 10583 10575 10566 10558 10551 10543 10536 10528 10520 10511 10503 10493 10484 10475 10466 10456 10446 10437 10427 10418 10410 10404 10398 10394 10391 10389 10387 10384 10379 10376 10381 10387 10390 10392 10396 10401 10406 10409 10413 10419 10425 10429 10435 10443 10450 10456 10459 10462 10464 10467
10742 10740 10738 10735 10732 10730 10727 10725 10722 10720 10717 10715 10713 10710 10708 10704 10701 10699 10695 10689 10682 10677 10673 10666 10659 10653 10649 10647 10639 10630 10623 10614 10604 10595 10586 10580 10572 10562 10554 10546 10538 10530 10523 10516 10507 10499 10490 10480 10470 10459 10450 10442 10434 10425 10416 10406 10397 10390 10382 10375 10370 10366 10365 10365 10362 10359 10363 10369 10373 10375 10379 10384 10389 10393 10396 10403 10409 10414 10419 10424 10433 10441 10445 10446 10450 10455
10736 10734 10732 10729 10726 10722 10720 10717 10715 10713 10710 10708 10706 10702 10700 10696 10692 10689 10686 10683 10676 10670 10665 10657 10653 10646 10636 10635 10631 10620 10613 10604 10593 10585 10577 10569 10559 10548 10539 10530 10522 10513 10505 10497 10488 10480 10472 10464 10454 10444 10432 10423 10417 10410 10402 10393 10385 10377 10369 10359 10351 10345 10343 10344 10344 10342 10345 10351 10355 10358 10362 10367 10372 10376 10379 10385 10392 10398 10403 10407 10416 10425 10429 10432 10436 10440
10730 10728 10726 10722 10719 10716 10712 10710 10707 10706 10704 10701 10698 10694 10692 10688 10684 10679 10674 10672 10668 10663 10658 10647 10645 10644 10628 10617 10615 10610 10602 10592 10582 10575 10567 10557 10546 10536 10526 10517 10508 10499 10489 10479 10468 10458 10449 10439 10430 10421 10411 10402 10396 10391 10384 10374 10366 10360 10354 10347 10338 10329 10323 10323 10326 10326 10327 10333 10338 10341 10345 10349 10355 10360 10363 10369 10374 10380 10386 10391 10399 10408 10414 10418 10422 10427
10725 10722 10719 10716 10712 10709 10706 10703 10699 10697 10696 10694 10691 10687 10684 10679 10675 10671 10664 10660 10657 10654 10650 10637 10630 10632 10624 10607 10597 10595 10590 10580 10571 10562 10554 10545 10534 10523 10514 10505 10496 10487 10477 10467 10456 10445 10433 10423 10412 10400 10389 10380 10373 10370 10364 10355 10346 10340 10335 10329 10323 10315 10308 10304 10307 10309 10310 10316 10322 10325 10329 10332 10338 10344 10348 10352 10356 10362 10370 10377 10384 10392 10399 10405 10410 10416
10719 10716 10713 10710 10706 10702 10698 10695 10692 10689 10687 10686 10683 10679 10675 10671 10666 10662 10657 10651 10646 10644 10641 10630 10618 10614 10610 10597 10585 10580 10573 10563 10555 10548 10541 10532 10521 10511 10501 10491 10481 10471 10462 10452 10442 10431 10419 10407 10396 10384 10372 10362 10354 10348 10343 10337 10328 10322 10316 10311 10304 10298 10294 10289 10288 10292 10295 10300 10306 10310 10312 10316 10322 10328 10333 10336 10340 10346 10354 10363 10370 10377 10385 10393 10398 10403
10713 10710 10707 10704 10700 10696 10691 10688 10685 10681 10679 10677 10674 10670 10665 10661 10656 10652 10648 10643 10638 10634 10627 10618 10609 10602 10598 10587 10572 10563 10557 10548 10540 10533 10527 10518 10509 10500 10489 10478 10467 10456 10445 10435 10424 10412 10399 10387 10375 10365 10355 10346 10337 10328 10321 10317 10311 10304 10299 10294 10287 10281 10279 10277 10273 10276 10281 10285 10290 10294 10296 10300 10305 10312 10317 10320 10325 10331 10338 10347 10355 10362 10370 10379 10385 10390
10707 10703 10699 10696 10693 10689 10684 10680 10677 10673 10670 10667 10663 10659 10654 10650 10647 10643 10639 10633 10629 10624 10615 10604 10596 10590 10587 10580 10565 10550 10541 10535 10529 10521 10512 10503 10494 10484 10474 10464 10453 10441 10429 10418 10409 10397 10385 10374 10361 10349 10338 10328 10320 10312 10304 10299 10294 10289 10282 10277 10272 10266 10264 10264 10261 10262 10268 10271 10275 10280 10281 10284 10289 10296 10302 10305 10309 10315 10322 10331 10339 10347 10355 10363 10370 10377
10699 10696 10692 10688 10685 10681 10676 10672 10668 10663 10660 10657 10653 10650 10645 10641 10637 10635 10630 10624 10618 10613 10607 10597 10585 10575 10567 10563 10556 10543 10531 10524 10517 10509 10499 10490 10481 10471 10460 10450 10438 10425 10413 10404 10397 10387 10375 10365 10354 10340 10328 10316 10306 10297 10290 10284 10280 10275 10268 10263 10259 10253 10249 10250 10248 10249 10254 10257 10260 10265 10267 10269 10273 10280 10285 10290 10296 10301 10307 10316 10324 10332 10340 10348 10356 10364
10692 10689 10685 10680 10677 10672 10667 10663 10659 10655 10651 10647 10644 10640 10638 10633 10629 10627 10621 10616 10611 10603 10596 10589 10577 10564 10550 10538 10533 10526 10518 10511 10502 10492 10484 10475 10467 10458 10446 10436 10425 10411 10399 10389 10381 10372 10360 10349 10341 10330 10318 10307 10296 10286 10279 10272 10267 10261 10255 10249 10246 10241 10236 10236 10235 10235 10240 10244 10247 10251 10253 10255 10258 10264 10271 10276 10283 10288 10294 10302 10310 10317 10325 10334 10343 10351
10686 10682 10676 10673 10671 10665 10659 10655 10651 10649 10644 10639 10635 10629 10626 10622 10619 10618 10613 10608 10606 10596 10583 10575 10566 10558 10545 10529 10519 10509 10499 10494 10485 10474 10466 10457 10447 10438 10428 10419 10410 10396 10383 10373 10363 10354 10342 10328 10320 10314 10306 10297 10287 10276 10268 10261 10255 10249 10243 10237 10234 10230 10225 10223 10223 10223 10227 10232 10234 10237 10240 10242 10244 10250 10258 10263 10269 10275 10281 10289 10297 10304 10313 10322 10330 10338
10681 10677 10670 10666 10664 10659 10653 10648 10643 10641 10636 10632 10627 10619 10614 10608 10603 10604 10602 10598 10598 10593 10579 10562 10550 10545 10537 10525 10513 10502 10490 10481 10473 10461 10450 10440 10430 10420 10412 10403 10393 10381 10368 10359 10349 10339 10327 10312 10301 10297 10292 10285 10277 10267 10258 10250 10245 10239 10232 10227 10223 10219 10214 10212 10211 10212 10215 10220 10223 10224 10227 10230 10232 10237 10244 10251 10256 10262 10268 10276 10285 10293 10302 10311 10318 10325
10675 10672 10666 10660 10656 10651 10646 10641 10636 10632 10627 10623 10617 10610 10605 10597 10588 10586 10587 10582 10581 10584 10579 10560 10541 10529 10521 10515 10504 10493 10485 10474 10462 10452 10439 10429 10420 10408 10398 10390 10379 10367 10356 10346 10337 10327 10315 10298 10284 10278 10277 10272 10264 10256 10247 10239 10234 10229 10223 10217 10213 10208 10205 10203 10201 10201 10204 10208 10212 10214 10216 10219 10221 10224 10231 10239 10244 10250 10257 10265 10274 10282 10291 10300 10307 10314
10668 10665 10660 10654 10649 10643 10637 10633 10629 10623 10618 10613 10608 10600 10594 10588 10578 10572 10573 10568 10561 10566 10569 10557 10541 10522 10504 10499 10493 10481 10477 10468 10453 10444 10432 10420 10411 10399 10387 10378 10367 10355 10345 10336 10327 10318 10306 10289 10269 10258 10257 10257 10251 10244 10237 10229 10223 10219 10214 10208 10204 10198 10195 10195 10194 10192 10194 10197 10201 10204 10205 10208 10211 10214 10220 10227 10233 10239 10246 10255 10264 10271 10280 10289 10296 10303
10659 10657 10653 10648 10643 10637 10629 10624 10620 10615 10608 10602 10597 10588 10581 10577 10569 10561 10560 10556 10546 10545 10551 10545 10534 10521 10497 10481 10477 10469 10463 10457 10445 10434 10425 10412 10402 10392 10382 10373 10361 10348 10339 10329 10319 10310 10300 10286 10266 10246 10239 10240 10237 10232 10226 10218 10213 10209 10204 10200 10195 10189 10186 10186 10186 10185 10185 10187 10191 10193 10195 10197 10201 10204 10209 10216 10222 10228 10236 10245 10253 10261 10269 10277 10284 10290
10649 10647 10645 10640 10635 10630 10622 10616 10611 10606 10599 10592 10586 10577 10570 10564 10557 10549 10544 10542 10535 10529 10534 10533 10521 10512 10495 10469 10459 10458 10451 10444 10437 10427 10417 10406 10394 10385 10376 10366 10353 10340 10331 10322 10311 10302 10292 10280 10264 10245 10231 10227 10225 10220 10215 10208 10202 10198 10194 10190 10185 10181 10177 10176 10178 10178 10177 10179 10181 10183 10186 10188 10191 10195 10199 10205 10211 10217 10225 10234 10242 10251 10258 10265 10272 10277
10641 10637 10635 10631 10626 10620 10614 10608 10601 10596 10590 10584 10576 10567 10559 10551 10544 10537 10527 10521 10518 10511 10514 10520 10512 10501 10487 10463 10447 10444 10436 10429 10425 10416 10407 10397 10385 10375 10365 10354 10341 10328 10318 10309 10299 10289 10278 10267 10255 10239 10225 10218 10215 10210 10205 10198 10192 10187 10183 10179 10175 10172 10169 10166 10168 10169 10169 10171 10172 10173 10176 10179 10182 10185 10189 10195 10201 10207 10215 10222 10231 10240 10247 10254 10260 10266
10633 10627 10625 10622 10617 10611 10606 10601 10593 10585 10580 10574 10566 10556 10549 10540 10531 10526 10517 10503 10495 10490 10487 10495 10500 10491 10474 10456 10442 10432 10422 10414 10408 10401 10393 10384 10373 10361 10350 10339 10327 10315 10303 10293 10283 10273 10264 10254 10244 10232 10218 10208 10203 10200 10197 10190 10183 10178 10173 10169 10165 10162 10160 10158 10158 10160 10160 10162 10163 10164 10167 10171 10173 10176 10180 10185 10191 10197 10203 10211 10220 10229 10236 10242 10249 10256
10624 10619 10615 10612 10607 10601 10596 10592 10586 10577 10569 10562 10554 10544 10535 10527 10518 10514 10512 10499 10483 10474 10466 10468 10480 10478 10456 10439 10430 10421 10410 10401 10393 10385 10378 10370 10359 10348 10337 10326 10315 10304 10292 10280 10270 10261 10251 10241 10233 10225 10213 10201 10192 10188 10185 10181 10175 10168 10163 10160 10155 10152 10150 10150 10150 10150 10150 10152 10154 10155 10157 10161 10164 10168 10172 10177 10181 10188 10193 10200 10209 10218 10224 10232 10239 10246
10615 10611 10606 10601 10596 10592 10587 10582 10577 10570 10562 10552 10543 10533 10522 10514 10506 10499 10499 10495 10481 10467 10454 10447 10457 10462 10444 10426 10418 10410 10400 10390 10380 10371 10363 10357 10349 10338 10328 10316 10304 10294 10282 10270 10260 10251 10241 10230 10222 10216 10206 10195 10185 10178 10174 10171 10166 10160 10154 10150 10147 10143 10141 10142 10142 10141 10141 10142 10145 10147 10148 10151 10155 10159 10164 10169 10173 10178 10184 10191 10199 10207 10214 10222 10229 10236
10606 10602 10598 10592 10585 10581 10577 10571 10565 10561 10554 10545 10535 10524 10512 10503 10496 10491 10487 10485 10480 10467 10448 10435 10437 10440 10429 10414 10405 10399 10392 10381 10370 10360 10351 10346 10340 10329 10317 10306 10293 10284 10274 10263 10252 10242 10232 10220 10210 10204 10197 10187 10177 10170 10165 10160 10156 10152 10147 10142 10138 10134 10133 10134 10134 10133 10132 10133 10136 10138 10139 10142 10146 10150 10156 10161 10164 10169 10176 10183 10189 10196 10204 10212 10218 10226
10598 10593 10589 10584 10577 10571 10566 10560 10555 10550 10545 10538 10527 10515 10504 10494 10486 10483 10478 10471 10471 10465 10445 10429 10426 10426 10415 10401 10391 10384 10378 10371 10361 10349 10337 10332 10328 10318 10306 10295 10284 10274 10266 10256 10246 10237 10225 10212 10201 10193 10188 10179 10169 10161 10155 10149 10145 10142 10139 10135 10130 10126 10125 10125 10125 10125 10125 10125 10127 10129 10130 10133 10137 10141 10146 10152 10156 10160 10167 10174 10179 10186 10195 10202 10209 10217
10589 10583 10578 10573 10568 10562 10556 10550 10544 10541 10536 10531 10522 10507 10495 10486 10477 10471 10465 10457 10454 10454 10441 10421 10416 10418 10408 10392 10383 10373 10365 10359 10351 10338 10325 10317 10314 10306 10295 10284 10276 10267 10258 10247 10238 10229 10218 10206 10195 10185 10178 10171 10162 10153 10146 10139 10134 10130 10129 10127 10123 10119 10117 10117 10117 10117 10117 10117 10119 10120 10121 10124 10128 10131 10137 10143 10147 10151 10158 10164 10170 10177 10185 10193 10200 10207
10580 10575 10567 10561 10556 10551 10546 10540 10534 10530 10526 10521 10514 10500 10484 10476 10469 10459 10451 10443 10436 10437 10434 10414 10401 10407 10403 10388 10379 10369 10355 10348 10342 10330 10318 10310 10306 10298 10285 10274 10266 10256 10246 10234 10224 10216 10207 10196 10187 10178 10169 10163 10154 10146 10139 10132 10125 10120 10118 10118 10116 10112 10110 10108 10109 10109 10109 10109 10111 10112 10113 10115 10119 10123 10127 10133 10137 10142 10148 10154 10160 10167 10175 10184 10191 10198
10570 10567 10559 10550 10545 10539 10533 10529 10523 10518 10514 10508 10501 10489 10473 10464 10460 10450 10438 10429 10419 10419 10422 10408 10391 10390 10390 10380 10373 10363 10349 10339 10332 10322 10311 10304 10299 10290 10277 10264 10254 10243 10233 10221 10211 10202 10193 10185 10178 10170 10161 10153 10145 10137 10131 10125 10118 10112 10109 10108 10107 10106 10103 10101 10101 10101 10102 10102 10103 10105 10106 10107 10110 10114 10119 10124 10128 10132 10139 10145 10151 10158 10165 10175 10184 10190
10557 10555 10548 10540 10534 10528 10522 10518 10512 10506 10503 10497 10489 10477 10463 10454 10450 10440 10426 10415 10407 10405 10407 10401 10388 10380 10375 10369 10363 10353 10339 10328 10321 10312 10302 10293 10286 10276 10264 10252 10242 10233 10226 10216 10204 10193 10183 10175 10169 10162 10152 10143 10135 10128 10122 10117 10111 10105 10101 10100 10099 10097 10096 10095 10094 10094 10094 10095 10096 10097 10099 10100 10102 10106 10112 10116 10118 10123 10129 10136 10143 10149 10157 10167 10177 10183
10541 10539 10534 10528 10523 10517 10511 10505 10499 10493 10490 10485 10477 10465 10454 10448 10442 10432 10418 10405 10397 10394 10392 10388 10382 10374 10365 10358 10354 10343 10328 10315 10307 10299 10290 10281 10272 10262 10252 10242 10233 10226 10218 10209 10199 10187 10175 10166 10158 10151 10143 10135 10127 10120 10114 10108 10104 10099 10095 10093 10092 10090 10088 10088 10088 10087 10087 10087 10088 10090 10092 10093 10095 10099 10104 10108 10110 10113 10119 10126 10134 10141 10149 10159 10169 10176
10526 10523 10519 10514 10510 10505 10498 10490 10484 10480 10476 10473 10466 10454 10444 10441 10435 10424 10411 10397 10388 10386 10382 10374 10369 10363 10354 10347 10344 10336 10321 10305 10293 10282 10274 10268 10260 10250 10243 10234 10223 10216 10209 10200 10190 10178 10167 10159 10150 10141 10134 10127 10120 10114 10107 10101 10096 10092 10089 10087 10086 10084 10082 10081 10080 10080 10081 10081 10081 10082 10085 10087 10089 10092 10097 10100 10102 10104 10108 10115 10123 10132 10141 10151 10160 10168
10511 10509 10505 10499 10495 10493 10485 10476 10471 10467 10464 10462 10455 10443 10435 10433 10427 10416 10404 10390 10380 10377 10375 10366 10358 10351 10343 10337 10334 10328 10314 10298 10283 10268 10259 10256 10250 10239 10232 10223 10211 10203 10197 10189 10179 10167 10159 10153 10144 10134 10126 10120 10113 10106 10100 10093 10088 10084 10083 10081 10080 10079 10076 10074 10073 10073 10074 10074 10074 10075 10077 10081 10084 10087 10091 10093 10095 10097 10100 10106 10114 10123 10132 10142 10151 10160
10498 10495 10491 10484 10481 10480 10473 10465 10461 10458 10456 10452 10442 10431 10427 10424 10417 10409 10397 10382 10370 10367 10366 10359 10349 10342 10335 10330 10328 10323 10310 10294 10279 10263 10250 10246 10240 10229 10219 10210 10198 10186 10178 10171 10163 10155 10150 10146 10139 10131 10122 10113 10106 10098 10092 10086 10080 10076 10076 10075 10074 10073 10070 10067 10067 10067 10067 10068 10069 10069 10070 10074 10078 10081 10084 10086 10088 10091 10095 10100 10107 10115 10123 10133 10143 10152
10484 10480 10476 10470 10467 10467 10462 10454 10450 10448 10447 10441 10429 10420 10418 10414 10407 10400 10391 10376 10361 10355 10354 10349 10339 10334 10328 10322 10319 10316 10306 10292 10277 10260 10244 10232 10223 10214 10204 10193 10182 10171 10161 10154 10148 10143 10140 10136 10130 10123 10114 10106 10099 10091 10084 10079 10074 10070 10069 10068 10067 10066 10063 10061 10060 10061 10061 10061 10063 10064 10065 10068 10072 10076 10078 10080 10082 10086 10090 10096 10103 10109 10116 10125 10134 10144
10471 10467 10463 10458 10454 10454 10451 10442 10437 10438 10437 10427 10415 10408 10405 10401 10396 10391 10383 10369 10353 10346 10345 10338 10327 10321 10315 10308 10303 10301 10296 10285 10268 10250 10235 10219 10204 10195 10187 10178 10170 10163 10155 10147 10140 10136 10133 10127 10122 10116 10105 10094 10089 10083 10076 10072 10069 10065 10064 10063 10061 10058 10056 10054 10054 10055 10055 10055 10057 10058 10059 10062 10065 10069 10072 10076 10078 10081 10086 10092 10098 10103 10110 10118 10127 10137
10461 10456 10451 10447 10443 10441 10437 10429 10422 10424 10425 10414 10400 10394 10392 10388 10385 10382 10376 10363 10346 10340 10338 10329 10318 10310 10303 10295 10289 10285 10283 10275 10258 10240 10227 10213 10195 10179 10169 10163 10158 10156 10152 10143 10135 10131 10127 10120 10114 10110 10099 10088 10082 10076 10069 10065 10063 10060 10058 10057 10054 10051 10048 10048 10048 10050 10050 10049 10050 10052 10054 10056 10058 10061 10066 10070 10074 10078 10082 10087 10093 10099 10105 10112 10121 10131
10451 10446 10441 10436 10432 10428 10424 10418 10410 10409 10411 10401 10388 10383 10383 10379 10373 10371 10369 10357 10341 10333 10330 10322 10313 10305 10297 10289 10281 10274 10271 10268 10254 10234 10220 10208 10193 10175 10161 10151 10145 10142 10139 10131 10123 10119 10117 10112 10105 10100 10091 10082 10077 10072 10064 10059 10056 10054 10051 10050 10047 10044 10042 10042 10043 10045 10045 10044 10044 10046 10048 10050 10052 10054 10059 10064 10069 10073 10078 10083 10088 10094 10101 10108 10117 10126
10440 10435 10429 10424 10422 10417 10412 10408 10403 10400 10397 10387 10375 10373 10374 10370 10362 10357 10356 10349 10335 10326 10322 10315 10307 10299 10291 10283 10273 10263 10260 10259 10250 10234 10221 10210 10196 10181 10166 10150 10138 10130 10124 10116 10109 10105 10101 10097 10092 10088 10081 10072 10068 10065 10059 10054 10050 10048 10045 10043 10041 10038 10037 10037 10038 10040 10039 10039 10039 10040 10043 10045 10046 10049 10054 10059 10064 10068 10072 10078 10084 10091 10098 10106 10113 10122
10429 10425 10418 10413 10411 10406 10399 10397 10395 10392 10387 10372 10359 10360 10364 10359 10351 10346 10343 10339 10328 10318 10312 10305 10297 10290 10282 10274 10264 10253 10249 10249 10244 10231 10218 10208 10195 10182 10169 10154 10138 10125 10115 10106 10100 10096 10093 10089 10083 10077 10071 10064 10059 10056 10053 10049 10045 10042 10040 10037 10035 10034 10032 10031 10033 10034 10033 10033 10034 10035 10037 10039 10040 10042 10048 10054 10058 10062 10068 10074 10080 10087 10095 10102 10110 10119
10418 10413 10406 10403 10399 10392 10386 10385 10384 10382 10376 10358 10345 10347 10351 10348 10341 10334 10330 10327 10319 10310 10302 10294 10287 10282 10274 10265 10255 10244 10236 10234 10231 10221 10208 10197 10184 10169 10156 10144 10131 10118 10108 10099 10091 10084 10082 10081 10077 10071 10064 10056 10050 10048 10046 10043 10040 10037 10035 10032 10030 10029 10028 10026 10027 10028 10028 10028 10029 10030 10032 10034 10035 10037 10043 10049 10053 10057 10063 10070 10076 10083 10091 10099 10107 10116
10407 10401 10395 10392 10387 10379 10373 10372 10372 10371 10362 10345 10334 10334 10334 10332 10328 10320 10315 10313 10306 10298 10291 10284 10277 10272 10266 10255 10245 10235 10225 10216 10210 10202 10191 10181 10169 10155 10141 10129 10118 10108 10100 10094 10087 10079 10072 10070 10070 10067 10062 10054 10047 10042 10039 10037 10034 10032 10030 10029 10027 10025 10024 10022 10022 10023 10023 10023 10024 10026 10028 10030 10031 10034 10039 10045 10049 10052 10058 10066 10072 10079 10087 10095 10104 10113
10395 10389 10385 10380 10373 10367 10360 10357 10359 10360 10349 10334 10326 10323 10318 10316 10315 10308 10301 10298 10292 10284 10278 10272 10267 10262 10256 10246 10235 10226 10217 10205 10194 10185 10175 10165 10157 10146 10133 10121 10110 10099 10090 10084 10080 10074 10067 10061 10059 10057 10054 10049 10043 10039 10034 10031 10029 10027 10026 10025 10023 10021 10019 10019 10019 10018 10018 10019 10020 10022 10024 10026 10028 10031 10035 10040 10044 10048 10054 10061 10067 10074 10083 10091 10100 10110
10383 10376 10373 10368 10361 10354 10349 10344 10343 10343 10337 10327 10319 10314 10309 10307 10304 10297 10289 10285 10280 10273 10265 10261 10257 10252 10246 10236 10225 10214 10207 10198 10186 10175 10164 10155 10147 10137 10125 10113 10104 10096 10088 10081 10075 10069 10064 10058 10053 10049 10047 10042 10037 10033 10030 10026 10023 10022 10021 10020 10019 10017 10015 10015 10015 10014 10014 10015 10016 10018 10020 10022 10025 10028 10031 10036 10040 10044 10050 10056 10063 10070 10079 10087 10097 10106
10370 10363 10359 10355 10348 10341 10338 10333 10327 10323 10323 10320 10311 10304 10300 10298 10294 10288 10281 10275 10268 10261 10254 10249 10245 10240 10234 10225 10215 10204 10196 10188 10178 10167 10156 10146 10138 10128 10116 10104 10094 10087 10082 10077 10071 10065 10059 10055 10050 10045 10042 10038 10032 10027 10024 10022 10019 10017 10016 10016 10014 10013 10012 10012 10011 10011 10011 10012 10013 10015 10017 10019 10022 10026 10030 10034 10038 10042 10046 10052 10059 10066 10074 10083 10093 10102
10356 10350 10345 10341 10335 10328 10327 10324 10314 10306 10307 10307 10300 10293 10289 10286 10282 10277 10272 10266 10257 10249 10243 10238 10232 10226 10220 10212 10203 10193 10185 10178 10168 10158 10149 10141 10132 10122 10110 10097 10086 10080 10075 10070 10065 10060 10053 10049 10045 10040 10036 10033 10029 10024 10020 10017 10015 10013 10012 10012 10010 10009 10009 10009 10009 10009 10009 10009 10010 10011 10013 10016 10019 10023 10027 10030 10035 10039 10044 10050 10055 10061 10069 10078 10088 10097
10341 10336 10331 10328 10322 10317 10316 10312 10301 10292 10291 10289 10285 10281 10276 10272 10267 10262 10257 10251 10243 10236 10231 10225 10218 10212 10205 10198 10190 10181 10172 10166 10158 10148 10140 10133 10125 10115 10103 10091 10079 10072 10067 10063 10059 10054 10049 10044 10040 10035 10031 10027 10023 10021 10017 10013 10011 10009 10009 10008 10007 10006 10006 10006 10006 10006 10006 10007 10007 10009 10010 10012 10015 10020 10024 10027 10030 10035 10040 10046 10051 10057 10065 10074 10083 10092
10329 10322 10317 10315 10310 10306 10305 10300 10289 10281 10277 10272 10269 10267 10263 10258 10253 10247 10240 10234 10227 10222 10217 10211 10204 10198 10191 10185 10178 10169 10160 10153 10147 10138 10130 10125 10118 10108 10096 10085 10073 10064 10060 10057 10052 10047 10042 10038 10035 10030 10026 10021 10017 10014 10012 10010 10007 10006 10005 10004 10003 10001 10001 10001 10002 10003 10003 10004 10005 10006 10007 10009 10013 10017 10022 10024 10027 10031 10035 10041 10047 10053 10060 10069 10078 10087
10316 10307 10303 10301 10299 10296 10294 10286 10277 10272 10267 10259 10254 10252 10248 10243 10238 10232 10224 10218 10211 10206 10202 10195 10189 10184 10177 10172 10166 10157 10148 10141 10135 10127 10120 10115 10110 10102 10091 10079 10068 10059 10053 10050 10047 10042 10037 10033 10030 10026 10022 10017 10013 10009 10006 10004 10003 10002 10001 10000 9999 9997 9996 9997 9998 9999 10000 10000 10001 10003 10004 10006 10009 10014 10019 10022 10025 10029 10033 10038 10043 10049 10056 10064 10073 10082
10301 10295 10289 10286 10287 10287 10282 10272 10266 10264 10259 10249 10241 10238 10234 10228 10222 10215 10208 10202 10197 10192 10187 10181 10175 10169 10164 10160 10154 10146 10136 10129 10122 10116 10111 10106 10102 10095 10085 10073 10062 10053 10047 10043 10040 10036 10031 10027 10025 10022 10018 10014 10009 10005 10002 10000 9998 9997 9997 9996 9995 9993 9992 9993 9994 9996 9997 9997 9998 10000 10001 10002 10005 10009 10014 10018 10022 10026 10031 10035 10040 10046 10053 10060 10068 10076
10286 10283 10277 10274 10277 10276 10267 10258 10255 10255 10249 10239 10231 10227 10222 10215 10208 10201 10194 10188 10184 10179 10174 10167 10161 10154 10150 10147 10142 10135 10126 10117 10110 10104 10100 10097 10094 10088 10079 10067 10055 10046 10041 10037 10033 10030 10026 10021 10019 10017 10014 10010 10005 10001 9998 9996 9994 9993 9992 9992 9990 9989 9989 9989 9990 9992 9994 9995 9995 9997 9998 10000 10003 10006 10011 10014 10018 10022 10027 10032 10036 10042 10048 10055 10063 10070
10270 10270 10266 10265 10269 10265 10254 10245 10243 10242 10238 10229 10221 10216 10210 10202 10195 10188 10181 10175 10171 10166 10161 10155 10148 10142 10136 10133 10129 10124 10116 10107 10100 10095 10090 10087 10085 10080 10072 10062 10050 10040 10034 10029 10025 10022 10019 10015 10012 10010 10008 10005 10001 9997 9994 9991 9990 9989 9989 9988 9986 9985 9985 9986 9987 9989 9990 9991 9993 9994 9996 9998 10001 10004 10008 10011 10014 10019 10023 10028 10033 10038 10044 10050 10057 10064
10255 10257 10255 10255 10259 10255 10243 10234 10230 10228 10224 10216 10209 10204 10198 10190 10182 10175 10168 10163 10158 10153 10148 10143 10138 10132 10126 10121 10116 10112 10105 10097 10091 10086 10082 10079 10077 10072 10063 10053 10043 10035 10028 10023 10019 10015 10012 10009 10006 10004 10001 9998 9995 9992 9989 9987 9986 9985 9985 9984 9982 9981 9981 9982 9983 9985 9987 9988 9989 9991 9992 9995 9998 10001 10005 10008 10011 10015 10020 10024 10029 10034 10039 10045 10051 10058